Aeroporto :
LOGIN :

Iscrizione | Disclaimer

   EN    FR    IT 

 










Sommario :    VFR   VFR Marginale   IFR   IFR Intensivo   IFR Molto Intensivo
Visibilità : 
Base nubi : 
>= 8 km
>= 3000ft
5 / 8 km
1000 / 3000 ft
1500m / 5 km
500 / 1000 ft
800 / 1500m
200 / 500 ft
< 800m
< 200 ft
Simboli :   Temporali  Nebbia  Neve Forte  Precipitazioni Forti  Vento > 20 kt
SIGMETs :   Varie  Temporali  Ghiacco  Turbolenza  Onda orograficha  Ceneri Vulcaniche







- Altitudine del aeroporto : 659 ft
- Codice IATA : LGG


EBLG - Liège

ULTIMO METAR :
  • 190550Z 23008KT 7000 BKN012 06/05 Q1018 NOSIG

METARs OBSOLETI :
  • 190520Z 23007KT 7000 BKN012 06/05 Q1018 NOSIG
  • 190450Z 23007KT 8000 SCT012 06/05 Q1018 NOSIG
  • 190420Z 23007KT 9000 BKN012 07/05 Q1018 NOSIG
  • 190350Z 23007KT 8000 -DZ BKN014 BKN046 07/05 Q1017 NOSIG
  • 190320Z 25007KT 6000 -RA FEW024 SCT038 BKN046 07/06 Q1017 NOSIG

TAF TAF EBLG
Valido dal 19 a 06 ore il 20 a 12 ore UTC


190510Z 1906/2012 26011KT 9999 BKN011
PROB40
TEMPO 1906/1908 BKN006
BECMG 1908/1910 SCT020
BECMG 1918/1920 20006KT
Nessun NOTAM noto per questo aeroporto.



MetMap, La meteo Aeronautica in un colpo d'occhio ! - Copyright ORBIFLY Dicembre 2007 - Disclaimer

ORBIFLY MET'MAP TEAM :

Programmazione e sviluppo : Alexandra Zaïnal
Concezione e sviluppo : Baudouin d'Aumeries
Co-Programmazione e sviluppo : Marc-Olivier Méhu
Supporto tecnico e logistico : Manuel Goepfert
Aiuto per la traduzione : Arnaldo La Scala

Contatto : metmap@orbifly.com




FONTI E CREDITI :

   NOAA